{"data":{"norad_id":52543,"intl_designator":"2022-051L","name":"STARLINK-3926","alt_names":[],"object_type":"PAYLOAD","status":"ACTIVE","operator":null,"country":"US","launch_date":"2022-05-13","launch_site_code":"AFWTR","launch_vehicle":null,"mission":null,"orbit_class":"UNKNOWN","rcs_meters":null,"size_class":null,"mass_kg":null,"dimensions":null,"purposes":["comms"],"wikipedia_slug":null,"has_3d_model":false,"image_url":null,"decayed_at":null,"tle_current":{"epoch":"2026-09-20T04:26:19.394016Z","epoch_age_seconds":90579,"freshness":"FRESH","line1":"1 52543U 22051L   26263.18494669  .00000087  00000+0  13699-4 0  9991","line2":"2 52543  53.1623 323.5513 0001061  79.3576 280.7546 15.34394596240971","mean_motion":15.34394596,"eccentricity":0.0001061,"inclination_deg":53.1623,"raan_deg":323.5513,"arg_perigee_deg":79.3576,"mean_anomaly_deg":280.7546,"bstar":1.3699e-5,"rev_number":24097,"period_min":93.848088604712,"perigee_km":461.99348722744,"apogee_km":463.44511693474,"semimajor_km":6840.8563020811,"source":"CELESTRAK","updated_at":"2026-09-20T09:00:40.060125Z"}}}